Lake Charles, LA

9:02 AM CDT on August 27, 2016 (GMT -0500)
Chennault International

Weather History for KCWF - March, 2014

Change the Weather History Date:

Sunday, March 9, 2014

  Actual Average Record
Temperature  
Mean Temperature 60 °F -  
Max Temperature 68 °F 68 °F 82 °F (2009)
Min Temperature 53 °F 52 °F 39 °F (2008)
Degree Days  
Heating Degree Days 4    
Growing Degree Days 10 (Base 50)    
Moisture  
Dew Point 55 °F    
Average Humidity 88    
Maximum Humidity 100    
Minimum Humidity 64    
Precipitation  
Precipitation 0.01 in - - ()
Sea Level Pressure  
Sea Level Pressure 30.20 in    
Wind  
Wind Speed 2 mph (North)    
Max Wind Speed 8 mph    
Max Gust Speed -    
Visibility 8 miles    
Events Rain    
Averages and records for this station are not official NWS values.
T = Trace of Precipitation, MM = Missing Value Source: NWS Daily Summary

Daily Weather History Graph

Daily Weather History Graph

Search for Another Location

Airport or City:

Trip Planner

Search our weather history database for the weather conditions in past years. The results will help you decide how hot, cold, wet, or windy it might be!

Date:

Astronomy

Mar. 09, 2014 Rise Set
Actual Time 7:29 AM CDT 7:17 PM CDT
Civil Twilight 7:05 AM CDT 7:40 PM CDT
Nautical Twilight 6:37 AM CDT 8:08 PM CDT
Astronomical Twilight 6:10 AM CDT 8:36 PM CDT
Moon 1:27 PM CDT (3/9) 3:38 AM CDT (3/9)
Length of Visible Light 12h 35m
Length of Day
11h 47m
First Quarter, 61% of the Moon is Illuminated
Mar 9
First Quarter
Mar 16
Full
Mar 23
Last Quarter
Mar 30
New
Apr 7
First Quarter

Hourly Weather History & Observations

Time (CDT) Temp. Dew Point Humidity Pressure Visibility Wind Dir Wind Speed Gust Speed Precip Events Conditions
12:15 AM 57.4 °F 54.9 °F 91% 30.18 in 10.0 mi Calm Calm - N/A   Light Drizzle
12:35 AM 57.0 °F 54.7 °F 92% 30.18 in 7.0 mi Calm Calm - N/A   Mostly Cloudy
12:55 AM 57.4 °F 54.7 °F 91% 30.19 in 10.0 mi Calm Calm - 0.01 in Rain Light Rain
1:15 AM 57.2 °F 55.0 °F 92% 30.19 in 5.0 mi NNW 3.5 mph - N/A   Mostly Cloudy
1:35 AM 57.2 °F 55.0 °F 92% 30.19 in 10.0 mi Calm Calm - N/A   Overcast
1:55 AM 57.2 °F 54.5 °F 91% 30.18 in 10.0 mi North 3.5 mph - N/A   Scattered Clouds
3:15 AM 56.8 °F 54.1 °F 91% 30.18 in 10.0 mi North 3.5 mph - N/A   Clear
3:35 AM 57.2 °F 54.1 °F 89% 30.18 in 10.0 mi North 3.5 mph - N/A   Clear
3:55 AM 57.2 °F 54.0 °F 89% 30.16 in 10.0 mi North 4.6 mph - N/A   Clear
4:15 AM 57.2 °F 54.1 °F 89% 30.17 in 10.0 mi North 3.5 mph - N/A   Clear
4:35 AM 56.5 °F 53.6 °F 90% 30.17 in 10.0 mi North 3.5 mph - N/A   Clear
4:55 AM 55.0 °F 53.1 °F 93% 30.17 in 5.0 mi Calm Calm - N/A   Clear
5:15 AM 55.6 °F 53.8 °F 94% 30.18 in 7.0 mi Calm Calm - N/A   Clear
5:35 AM 54.3 °F 53.4 °F 97% 30.18 in 3.0 mi Calm Calm - N/A   Clear
5:55 AM 54.5 °F 54.5 °F 100% 30.18 in 2.0 mi Calm Calm - N/A   Clear
6:00 AM 55.4 °F 55.4 °F 100% 30.18 in 2.0 mi Calm Calm - N/A   Clear
6:15 AM 53.6 °F 53.6 °F 100% 30.20 in 1.8 mi Calm Calm - N/A   Mist
6:35 AM 54.9 °F 54.9 °F 100% 30.21 in 4.0 mi SSW 3.5 mph - N/A   Clear
6:45 AM 55.4 °F 55.4 °F 100% 30.21 in 5.0 mi SW 3.5 mph - N/A   Mostly Cloudy
6:55 AM 55.0 °F 55.0 °F 100% 30.22 in 5.0 mi Calm Calm - N/A   Clear
7:45 AM 55.4 °F 55.4 °F 100% 30.21 in 7.0 mi Calm Calm - N/A   Mostly Cloudy
8:55 AM 57.2 °F 55.4 °F 94% 30.21 in 10.0 mi Calm Calm - N/A   Mostly Cloudy
9:50 AM 60.8 °F 55.4 °F 82% 30.25 in 10.0 mi Variable 5.8 mph - N/A   Mostly Cloudy
10:50 AM 62.6 °F 55.4 °F 77% 30.27 in 10.0 mi Variable 5.8 mph - N/A   Overcast
12:50 PM 64.4 °F 55.4 °F 73% 30.26 in 10.0 mi Calm Calm - N/A   Overcast
1:55 PM 64.4 °F 55.4 °F 73% 30.23 in 10.0 mi Variable 6.9 mph - N/A   Mostly Cloudy
2:55 PM 66.2 °F 55.4 °F 68% 30.21 in 10.0 mi Variable 6.9 mph - N/A   Overcast
3:55 PM 66.2 °F 55.4 °F 68% 30.19 in 10.0 mi NNE 8.1 mph - N/A   Mostly Cloudy
4:50 PM 68.0 °F 55.4 °F 64% 30.17 in 10.0 mi North 6.9 mph - N/A   Mostly Cloudy
5:53 PM 66.2 °F 53.6 °F 64% 30.17 in 10.0 mi North 5.8 mph - N/A   Mostly Cloudy
6:55 PM 64.4 °F 55.4 °F 73% 30.17 in 10.0 mi North 4.6 mph - N/A   Scattered Clouds
7:50 PM 60.8 °F 55.4 °F 82% 30.18 in 10.0 mi Calm Calm - N/A   Clear
8:50 PM 60.8 °F 55.4 °F 82% 30.20 in 10.0 mi Calm Calm - N/A   Clear
9:50 PM 57.2 °F 53.6 °F 88% 30.21 in 10.0 mi North 3.5 mph - N/A   Scattered Clouds
11:15 PM 56.5 °F 54.1 °F 92% 30.21 in 10.0 mi North 4.6 mph - N/A   Clear
11:35 PM 56.7 °F 54.3 °F 92% 30.21 in 10.0 mi North 3.5 mph - N/A   Clear
11:55 PM 56.3 °F 54.0 °F 92% 30.20 in 7.0 mi North 4.6 mph - N/A   Clear
12:15 AM 55.9 °F 53.8 °F 92% 30.19 in 7.0 mi North 4.6 mph - N/A   Clear
12:35 AM 55.2 °F 53.4 °F 94% 30.19 in 5.0 mi NNW 4.6 mph - N/A   Clear
12:55 AM 54.5 °F 52.9 °F 94% 30.19 in 5.0 mi NNW 3.5 mph - N/A   Clear